| time (UTC) | temp F | wind direction | speed knots | gust knots | rain 1hr in | rain 24hr in | rain mn in | humidity % | barometer mb |
| 20260506162517 | 61 | 127 | 0.0 | 1.7 | 0.00 | 0.00 | 0.00 | 90 | 1007.0 |
| 20260506162017 | 61 | 226 | 0.0 | 2.6 | 0.00 | 0.00 | 0.00 | 90 | 1007.0 |
| 20260506161517 | 61 | 180 | 0.9 | 2.6 | 0.00 | 0.00 | 0.00 | 89 | 1007.0 |
| 20260506161017 | 62 | 159 | 0.9 | 3.5 | 0.00 | 0.00 | 0.00 | 88 | 1008.0 |
| 20260506160517 | 62 | 160 | 0.9 | 2.6 | 0.00 | 0.00 | 0.00 | 87 | 1008.0 |
| 20260506160017 | 63 | 306 | 0.0 | 2.6 | 0.00 | 0.00 | 0.00 | 86 | 1007.0 |
| 20260506155517 | 63 | 38 | 0.0 | 1.7 | 0.00 | 0.00 | 0.00 | 86 | 1007.0 |
| 20260506155018 | 63 | 160 | 0.9 | 1.7 | 0.00 | 0.00 | 0.00 | 85 | 1008.0 |
| 20260506154516 | 64 | 263 | 0.9 | 1.7 | 0.00 | 0.00 | 0.00 | 84 | 1008.0 |
| 20260506154016 | 64 | 36 | 0.9 | 0.9 | 0.00 | 0.00 | 0.00 | 84 | 1008.0 |
| 20260506153517 | 64 | 343 | 1.7 | 5.2 | 0.00 | 0.00 | 0.00 | 84 | 1007.0 |
| 20260506153017 | 64 | 175 | 0.0 | 2.6 | 0.00 | 0.00 | 0.00 | 82 | 1007.0 |
| 20260506152517 | 64 | 117 | 0.0 | 2.6 | 0.00 | 0.00 | 0.00 | 83 | 1007.0 |
| 20260506152016 | 63 | 205 | 0.0 | 3.5 | 0.00 | 0.00 | 0.00 | 82 | 1007.0 |
| 20260506151516 | 64 | 193 | 1.7 | 4.3 | 0.00 | 0.00 | 0.00 | 81 | 1007.0 |
| 20260506151016 | 64 | 166 | 1.7 | 2.6 | 0.00 | 0.00 | 0.00 | 79 | 1007.0 |
| 20260506150518 | 65 | 160 | 1.7 | 2.6 | 0.00 | 0.00 | 0.00 | 75 | 1007.0 |
| 20260506150017 | 65 | 194 | 0.9 | 5.2 | 0.00 | 0.00 | 0.00 | 72 | 1008.0 |
| 20260506145516 | 66 | 250 | 1.7 | 5.2 | 0.00 | 0.00 | 0.00 | 70 | 1008.0 |
| 20260506145020 | 66 | 201 | 1.7 | 2.6 | 0.00 | 0.00 | 0.00 | 70 | 1008.0 |
| 20260506144517 | 66 | 175 | 0.9 | 3.5 | 0.00 | 0.00 | 0.00 | 70 | 1008.0 |
| 20260506144016 | 66 | 146 | 1.7 | 4.3 | 0.00 | 0.00 | 0.00 | 70 | 1008.0 |
| 20260506143517 | 66 | 127 | 0.9 | 4.3 | 0.00 | 0.00 | 0.00 | 69 | 1007.0 |
| 20260506143017 | 66 | 0 | 1.7 | 3.5 | 0.00 | 0.00 | 0.00 | 69 | 1008.0 |
| 20260506142518 | 67 | 257 | 0.0 | 3.5 | 0.00 | 0.00 | 0.00 | 68 | 1007.0 |
| 20260506142017 | 67 | 271 | 4.3 | 4.3 | 0.00 | 0.00 | 0.00 | 68 | 1007.0 |
| 20260506141517 | 67 | 246 | 1.7 | 3.5 | 0.00 | 0.00 | 0.00 | 68 | 1007.0 |
| 20260506141017 | 66 | 52 | 1.7 | 5.2 | 0.00 | 0.00 | 0.00 | 68 | 1007.0 |
| 20260506140517 | 66 | 196 | 1.7 | 4.3 | 0.00 | 0.00 | 0.00 | 68 | 1007.0 |
| 20260506140018 | 66 | 71 | 2.6 | 2.6 | 0.00 | 0.00 | 0.00 | 69 | 1007.0 |
| 20260506135516 | 66 | 127 | 2.6 | 4.3 | 0.00 | 0.00 | 0.00 | 68 | 1007.0 |
| 20260506134528 | 66 | 254 | 1.7 | 4.3 | 0.00 | 0.00 | 0.00 | 69 | 1008.0 |
| 20260506134017 | 66 | 183 | 0.0 | 4.3 | 0.00 | 0.00 | 0.00 | 69 | 1007.0 |
| 20260506133517 | 66 | 278 | 3.5 | 4.3 | 0.00 | 0.00 | 0.00 | 68 | 1008.0 |
| 20260506133016 | 66 | 202 | 0.9 | 6.1 | 0.00 | 0.00 | 0.00 | 69 | 1008.0 |
| 20260506132517 | 66 | 28 | 0.9 | 3.5 | 0.00 | 0.00 | 0.00 | 69 | 1008.0 |
| 20260506132018 | 66 | 197 | 0.9 | 3.5 | 0.00 | 0.00 | 0.00 | 70 | 1008.0 |
| 20260506131517 | 66 | 105 | 0.9 | 5.2 | 0.00 | 0.00 | 0.00 | 70 | 1008.0 |
| 20260506131017 | 66 | 321 | 0.0 | 5.2 | 0.00 | 0.00 | 0.00 | 70 | 1008.0 |
| 20260506130518 | 65 | 274 | 0.9 | 4.3 | 0.00 | 0.00 | 0.00 | 72 | 1008.0 |
| 20260506130017 | 65 | 181 | 1.7 | 2.6 | 0.00 | 0.00 | 0.00 | 72 | 1008.0 |
| 20260506125517 | 65 | 134 | 1.7 | 2.6 | 0.00 | 0.00 | 0.00 | 72 | 1008.0 |
| 20260506125016 | 65 | 278 | 0.9 | 4.3 | 0.00 | 0.00 | 0.00 | 72 | 1007.0 |
| 20260506124518 | 65 | 91 | 0.0 | 2.6 | 0.00 | 0.00 | 0.00 | 73 | 1007.0 |
| 20260506124017 | 65 | 288 | 1.7 | 2.6 | 0.00 | 0.00 | 0.00 | 73 | 1007.0 |
| 20260506123516 | 64 | 158 | 0.9 | 2.6 | 0.00 | 0.00 | 0.00 | 73 | 1007.0 |
| 20260506123017 | 64 | 186 | 2.6 | 7.8 | 0.00 | 0.00 | 0.00 | 73 | 1007.0 |
| 20260506122519 | 64 | 190 | 0.9 | 1.7 | 0.00 | 0.00 | 0.00 | 74 | 1007.0 |
| 20260506122016 | 64 | 304 | 2.6 | 2.6 | 0.00 | 0.00 | 0.00 | 75 | 1007.0 |
| 20260506121516 | 64 | 178 | 0.9 | 1.7 | 0.00 | 0.00 | 0.00 | 75 | 1007.0 |
| 20260506121016 | 63 | 175 | 0.9 | 1.7 | 0.00 | 0.00 | 0.00 | 75 | 1008.0 |
| 20260506120517 | 63 | 314 | 2.6 | 2.6 | 0.00 | 0.00 | 0.00 | 75 | 1008.0 |
| 20260506120017 | 63 | 351 | 0.9 | 2.6 | 0.00 | 0.00 | 0.00 | 76 | 1008.0 |
| 20260506115516 | 63 | 148 | 2.6 | 3.5 | 0.00 | 0.00 | 0.00 | 76 | 1008.0 |
| 20260506115016 | 63 | 272 | 0.9 | 1.7 | 0.00 | 0.00 | 0.00 | 76 | 1008.0 |
| 20260506114517 | 63 | 117 | 0.9 | 3.5 | 0.00 | 0.00 | 0.00 | 76 | 1008.0 |
| 20260506114016 | 63 | 165 | 0.9 | 2.6 | 0.00 | 0.00 | 0.00 | 77 | 1008.0 |
| 20260506113516 | 63 | 190 | 0.9 | 3.5 | 0.00 | 0.00 | 0.00 | 76 | 1008.0 |
| 20260506113017 | 63 | 263 | 3.5 | 3.5 | 0.00 | 0.00 | 0.00 | 77 | 1008.0 |
| 20260506112516 | 63 | 172 | 1.7 | 3.5 | 0.00 | 0.00 | 0.00 | 77 | 1008.0 |
| 20260506112016 | 63 | 189 | 1.7 | 2.6 | 0.00 | 0.00 | 0.00 | 77 | 1008.0 |
| 20260506111516 | 62 | 115 | 1.7 | 7.0 | 0.00 | 0.00 | 0.00 | 78 | 1008.0 |
| 20260506111018 | 62 | 132 | 3.5 | 4.3 | 0.00 | 0.00 | 0.00 | 79 | 1008.0 |
| 20260506110517 | 62 | 268 | 0.9 | 4.3 | 0.00 | 0.00 | 0.00 | 80 | 1008.0 |
| 20260506110017 | 61 | 220 | 1.7 | 3.5 | 0.00 | 0.00 | 0.00 | 80 | 1008.0 |
| 20260506105516 | 61 | 108 | 2.6 | 4.3 | 0.00 | 0.00 | 0.00 | 80 | 1008.0 |
| 20260506105016 | 61 | 99 | 0.9 | 4.3 | 0.00 | 0.00 | 0.00 | 80 | 1008.0 |
| 20260506104516 | 61 | 132 | 2.6 | 4.3 | 0.00 | 0.00 | 0.00 | 80 | 1008.0 |
| 20260506104017 | 61 | 190 | 2.6 | 4.3 | 0.00 | 0.00 | 0.00 | 80 | 1008.0 |
| 20260506103516 | 61 | 297 | 0.9 | 2.6 | 0.00 | 0.00 | 0.00 | 80 | 1008.0 |
| 20260506103016 | 61 | 134 | 0.9 | 2.6 | 0.00 | 0.00 | 0.00 | 80 | 1008.0 |
| 20260506102517 | 61 | 117 | 0.0 | 2.6 | 0.00 | 0.00 | 0.00 | 80 | 1008.0 |
| 20260506102016 | 61 | 119 | 1.7 | 4.3 | 0.00 | 0.00 | 0.00 | 80 | 1008.0 |
| 20260506101517 | 61 | 204 | 3.5 | 6.1 | 0.00 | 0.00 | 0.00 | 80 | 1008.0 |
| 20260506101016 | 61 | 272 | 1.7 | 3.5 | 0.00 | 0.00 | 0.00 | 80 | 1008.0 |
| 20260506100517 | 61 | 128 | 2.6 | 3.5 | 0.00 | 0.00 | 0.00 | 80 | 1008.0 |
| 20260506100016 | 61 | 316 | 1.7 | 2.6 | 0.00 | 0.00 | 0.00 | 80 | 1008.0 |
| 20260506095517 | 61 | 269 | 0.0 | 2.6 | 0.00 | 0.00 | 0.00 | 80 | 1008.0 |
| 20260506095016 | 61 | 5 | 0.9 | 2.6 | 0.00 | 0.00 | 0.00 | 80 | 1007.0 |
| 20260506094516 | 61 | 197 | 0.0 | 3.5 | 0.00 | 0.00 | 0.00 | 80 | 1008.0 |
| 20260506094017 | 61 | 182 | 2.6 | 3.5 | 0.00 | 0.00 | 0.00 | 81 | 1007.0 |
| 20260506093516 | 61 | 77 | 0.0 | 2.6 | 0.00 | 0.00 | 0.00 | 81 | 1007.0 |
| 20260506093016 | 61 | 316 | 1.7 | 3.5 | 0.00 | 0.00 | 0.00 | 80 | 1007.0 |
| 20260506092516 | 61 | 192 | 2.6 | 2.6 | 0.00 | 0.00 | 0.00 | 81 | 1008.0 |
| 20260506092019 | 61 | 166 | 0.0 | 3.5 | 0.00 | 0.00 | 0.00 | 81 | 1007.0 |
| 20260506091517 | 61 | 195 | 0.0 | 3.5 | 0.00 | 0.00 | 0.00 | 81 | 1008.0 |
| 20260506091016 | 61 | 349 | 0.0 | 1.7 | 0.00 | 0.00 | 0.00 | 81 | 1008.0 |
| 20260506090516 | 61 | 291 | 0.0 | 2.6 | 0.00 | 0.00 | 0.00 | 81 | 1008.0 |
| 20260506090016 | 61 | 125 | 0.9 | 2.6 | 0.00 | 0.00 | 0.00 | 81 | 1008.0 |
| 20260506085516 | 61 | 160 | 1.7 | 3.5 | 0.00 | 0.00 | 0.00 | 80 | 1008.0 |
| 20260506085016 | 62 | 265 | 1.7 | 2.6 | 0.00 | 0.00 | 0.00 | 79 | 1008.0 |
| 20260506084517 | 62 | 310 | 0.0 | 1.7 | 0.00 | 0.00 | 0.00 | 79 | 1008.0 |
| 20260506084016 | 62 | 51 | 1.7 | 2.6 | 0.00 | 0.00 | 0.00 | 79 | 1008.0 |
| 20260506083517 | 62 | 269 | 0.0 | 3.5 | 0.00 | 0.00 | 0.00 | 79 | 1008.0 |
| 20260506083017 | 62 | 180 | 2.6 | 2.6 | 0.00 | 0.00 | 0.00 | 79 | 1008.0 |
| 20260506082516 | 62 | 133 | 0.0 | 1.7 | 0.00 | 0.00 | 0.00 | 79 | 1008.0 |
| 20260506082016 | 62 | 220 | 1.7 | 3.5 | 0.00 | 0.00 | 0.00 | 79 | 1008.0 |
| 20260506081516 | 62 | 271 | 0.9 | 2.6 | 0.00 | 0.00 | 0.00 | 79 | 1008.0 |
| 20260506081016 | 62 | 274 | 0.9 | 2.6 | 0.00 | 0.00 | 0.00 | 78 | 1008.0 |
| 20260506080517 | 62 | 89 | 0.0 | 1.7 | 0.00 | 0.00 | 0.00 | 78 | 1008.0 |
| 20260506073517 | 62 | 315 | 0.0 | 3.5 | 0.00 | 0.00 | 0.00 | 76 | 1008.0 |
| 20260506073017 | 62 | 170 | 0.0 | 2.6 | 0.00 | 0.00 | 0.00 | 75 | 1008.0 |
| 20260506072517 | 63 | 213 | 1.7 | 1.7 | 0.00 | 0.00 | 0.00 | 75 | 1008.0 |
| 20260506072017 | 63 | 177 | 1.7 | 3.5 | 0.00 | 0.00 | 0.00 | 75 | 1008.0 |
| 20260506071516 | 63 | 159 | 0.9 | 2.6 | 0.00 | 0.00 | 0.00 | 74 | 1008.0 |
| 20260506071016 | 63 | 154 | 0.0 | 1.7 | 0.00 | 0.00 | 0.00 | 74 | 1008.0 |
| 20260506070517 | 63 | 75 | 0.9 | 1.7 | 0.00 | 0.00 | 0.00 | 73 | 1008.0 |
| 20260506062517 | 64 | 181 | 1.7 | 3.5 | 0.00 | 0.00 | 0.00 | 69 | 1008.0 |
| 20260506062016 | 64 | 210 | 1.7 | 2.6 | 0.00 | 0.00 | 0.00 | 69 | 1008.0 |
| 20260506061517 | 64 | 13 | 0.0 | 2.6 | 0.00 | 0.00 | 0.00 | 69 | 1008.0 |
| 20260506061016 | 64 | 273 | 2.6 | 2.6 | 0.00 | 0.00 | 0.00 | 69 | 1008.0 |
| 20260506060517 | 64 | 154 | 0.9 | 1.7 | 0.00 | 0.00 | 0.00 | 68 | 1008.0 |
| 20260506051016 | 65 | 259 | 0.9 | 1.7 | 0.00 | 0.00 | 0.00 | 65 | 1008.0 |
| 20260506050517 | 65 | 47 | 1.7 | 2.6 | 0.00 | 0.00 | 0.00 | 65 | 1009.0 |
| 20260506045017 | 65 | 240 | 1.7 | 2.6 | 0.00 | 0.00 | 0.00 | 64 | 1009.0 |
| 20260506044516 | 65 | 212 | 1.7 | 3.5 | 0.00 | 0.00 | 0.00 | 64 | 1009.0 |
| 20260506044017 | 65 | 197 | 2.6 | 3.5 | 0.00 | 0.00 | 0.00 | 63 | 1008.0 |
| 20260506043516 | 65 | 190 | 0.9 | 3.5 | 0.00 | 0.00 | 0.00 | 63 | 1009.0 |
| 20260506043020 | 66 | 57 | 1.7 | 5.2 | 0.00 | 0.00 | 0.00 | 63 | 1009.0 |
| 20260506042516 | 66 | 254 | 1.7 | 5.2 | 0.00 | 0.00 | 0.00 | 62 | 1008.0 |
| 20260506042016 | 66 | 149 | 0.0 | 2.6 | 0.00 | 0.00 | 0.00 | 62 | 1008.0 |
| 20260506041517 | 66 | 310 | 0.9 | 5.2 | 0.00 | 0.00 | 0.00 | 62 | 1008.0 |
| 20260506041016 | 66 | 88 | 0.0 | 2.6 | 0.00 | 0.00 | 0.00 | 61 | 1008.0 |
| 20260506040516 | 66 | 273 | 0.9 | 2.6 | 0.00 | 0.00 | 0.00 | 61 | 1009.0 |
| 20260506040019 | 66 | 180 | 2.6 | 3.5 | 0.00 | 0.00 | 0.00 | 61 | 1008.0 |
| 20260506035516 | 66 | 91 | 2.6 | 2.6 | 0.00 | 0.00 | 0.00 | 61 | 1009.0 |
| 20260506035016 | 66 | 329 | 1.7 | 2.6 | 0.00 | 0.00 | 0.00 | 61 | 1008.0 |
| 20260506034517 | 66 | 183 | 0.9 | 3.5 | 0.00 | 0.00 | 0.00 | 60 | 1009.0 |
| 20260506034017 | 66 | 181 | 2.6 | 3.5 | 0.00 | 0.00 | 0.00 | 60 | 1008.0 |
| 20260506033516 | 66 | 100 | 0.9 | 3.5 | 0.00 | 0.00 | 0.00 | 60 | 1008.0 |
| 20260506033016 | 67 | 176 | 1.7 | 4.3 | 0.00 | 0.00 | 0.00 | 60 | 1009.0 |
| 20260506032517 | 67 | 330 | 0.9 | 3.5 | 0.00 | 0.00 | 0.00 | 59 | 1008.0 |
| 20260506032016 | 67 | 203 | 2.6 | 7.8 | 0.00 | 0.00 | 0.00 | 59 | 1008.0 |
| 20260506031516 | 67 | 301 | 0.9 | 2.6 | 0.00 | 0.00 | 0.00 | 59 | 1008.0 |
| 20260506031016 | 67 | 314 | 0.9 | 2.6 | 0.00 | 0.00 | 0.00 | 58 | 1008.0 |
| 20260506030516 | 68 | 141 | 0.9 | 2.6 | 0.00 | 0.00 | 0.00 | 58 | 1008.0 |
| 20260506030016 | 68 | 19 | 0.9 | 3.5 | 0.00 | 0.00 | 0.00 | 57 | 1008.0 |
| 20260506025516 | 68 | 328 | 0.0 | 3.5 | 0.00 | 0.00 | 0.00 | 57 | 1008.0 |
| 20260506025016 | 68 | 234 | 1.7 | 4.3 | 0.00 | 0.00 | 0.00 | 57 | 1008.0 |
| 20260506024516 | 68 | 340 | 1.7 | 4.3 | 0.00 | 0.00 | 0.00 | 56 | 1008.0 |
| 20260506024017 | 68 | 269 | 0.0 | 2.6 | 0.00 | 0.00 | 0.00 | 56 | 1008.0 |
| 20260506023516 | 68 | 159 | 2.6 | 3.5 | 0.00 | 0.00 | 0.00 | 55 | 1008.0 |
| 20260506023017 | 69 | 106 | 0.9 | 3.5 | 0.00 | 0.00 | 0.00 | 55 | 1008.0 |
| 20260506022517 | 69 | 187 | 0.0 | 1.7 | 0.00 | 0.00 | 0.00 | 54 | 1008.0 |
| 20260506022016 | 69 | 173 | 1.7 | 4.3 | 0.00 | 0.00 | 0.00 | 53 | 1008.0 |
| 20260506021516 | 69 | 56 | 1.7 | 3.5 | 0.00 | 0.00 | 0.00 | 53 | 1008.0 |
| 20260506021017 | 70 | 294 | 2.6 | 5.2 | 0.00 | 0.00 | 0.00 | 52 | 1008.0 |
| 20260506020516 | 70 | 190 | 2.6 | 5.2 | 0.00 | 0.00 | 0.00 | 51 | 1008.0 |
| 20260506020016 | 70 | 183 | 1.7 | 4.3 | 0.00 | 0.00 | 0.00 | 50 | 1008.0 |
| 20260506015517 | 70 | 157 | 2.6 | 3.5 | 0.00 | 0.00 | 0.00 | 49 | 1008.0 |
| 20260506015016 | 70 | 122 | 1.7 | 2.6 | 0.00 | 0.00 | 0.00 | 48 | 1008.0 |
| 20260506014516 | 71 | 237 | 2.6 | 2.6 | 0.00 | 0.00 | 0.00 | 47 | 1008.0 |
| 20260506014016 | 71 | 170 | 0.0 | 4.3 | 0.00 | 0.00 | 0.00 | 46 | 1008.0 |
| 20260506013516 | 71 | 23 | 0.0 | 5.2 | 0.00 | 0.00 | 0.00 | 45 | 1008.0 |
| 20260506013017 | 71 | 195 | 1.7 | 3.5 | 0.00 | 0.00 | 0.00 | 45 | 1008.0 |
| 20260506012517 | 71 | 215 | 0.9 | 3.5 | 0.00 | 0.00 | 0.00 | 44 | 1008.0 |
| 20260506012017 | 72 | 314 | 2.6 | 3.5 | 0.00 | 0.00 | 0.00 | 44 | 1008.0 |
| 20260506011516 | 72 | 154 | 1.7 | 3.5 | 0.00 | 0.00 | 0.00 | 44 | 1007.0 |
| 20260506011017 | 72 | 143 | 1.7 | 2.6 | 0.00 | 0.00 | 0.00 | 44 | 1008.0 |
| 20260506010522 | 72 | 242 | 1.7 | 2.6 | 0.00 | 0.00 | 0.00 | 44 | 1007.0 |
| 20260506010016 | 72 | 304 | 1.7 | 2.6 | 0.00 | 0.00 | 0.00 | 43 | 1007.0 |
| 20260506005516 | 72 | 306 | 0.0 | 2.6 | 0.00 | 0.00 | 0.00 | 44 | 1007.0 |
| 20260506005016 | 72 | 227 | 0.9 | 3.5 | 0.00 | 0.00 | 0.00 | 43 | 1007.0 |
| 20260506004517 | 73 | 279 | 2.6 | 2.6 | 0.00 | 0.00 | 0.00 | 43 | 1007.0 |
| 20260506004017 | 73 | 186 | 0.9 | 3.5 | 0.00 | 0.00 | 0.00 | 42 | 1007.0 |
| 20260506003517 | 73 | 256 | 0.9 | 3.5 | 0.00 | 0.00 | 0.00 | 42 | 1007.0 |
| 20260506003016 | 73 | 205 | 0.9 | 4.3 | 0.00 | 0.00 | 0.00 | 42 | 1007.0 |
| 20260506002516 | 73 | 209 | 1.7 | 4.3 | 0.00 | 0.00 | 0.00 | 41 | 1007.0 |
| 20260506002017 | 73 | 341 | 1.7 | 3.5 | 0.00 | 0.00 | 0.00 | 40 | 1007.0 |
| 20260506001517 | 74 | 281 | 0.9 | 2.6 | 0.00 | 0.00 | 0.00 | 39 | 1007.0 |
| 20260506001017 | 74 | 276 | 2.6 | 3.5 | 0.00 | 0.00 | 0.00 | 38 | 1007.0 |
| 20260506000516 | 74 | 275 | 0.9 | 2.6 | 0.00 | 0.00 | 0.00 | 37 | 1007.0 |
| 20260506000018 | 75 | 283 | 0.9 | 2.6 | 0.00 | 0.00 | 0.00 | 37 | 1007.0 |
| 20260505235516 | 75 | 193 | 0.9 | 3.5 | 0.00 | 0.00 | 0.00 | 36 | 1007.0 |
| 20260505235017 | 75 | 36 | 0.0 | 3.5 | 0.00 | 0.00 | 0.00 | 35 | 1007.0 |
| 20260505234517 | 75 | 354 | 0.9 | 2.6 | 0.00 | 0.00 | 0.00 | 35 | 1007.0 |
| 20260505234016 | 76 | 340 | 0.9 | 3.5 | 0.00 | 0.00 | 0.00 | 34 | 1007.0 |
| 20260505233517 | 75 | 223 | 1.7 | 4.3 | 0.00 | 0.00 | 0.00 | 34 | 1007.0 |
| 20260505233016 | 76 | 194 | 2.6 | 4.3 | 0.00 | 0.00 | 0.00 | 33 | 1007.0 |
| 20260505232517 | 76 | 212 | 1.7 | 4.3 | 0.00 | 0.00 | 0.00 | 33 | 1006.0 |
| 20260505232017 | 77 | 192 | 2.6 | 5.2 | 0.00 | 0.00 | 0.00 | 32 | 1007.0 |
| 20260505231517 | 77 | 271 | 2.6 | 5.2 | 0.00 | 0.00 | 0.00 | 32 | 1006.0 |
| 20260505231016 | 77 | 282 | 4.3 | 6.1 | 0.00 | 0.00 | 0.00 | 32 | 1006.0 |
| 20260505230516 | 77 | 205 | 0.9 | 3.5 | 0.00 | 0.00 | 0.00 | 33 | 1006.0 |
| 20260505230016 | 77 | 300 | 0.0 | 2.6 | 0.00 | 0.00 | 0.00 | 32 | 1006.0 |
| 20260505225516 | 77 | 195 | 3.5 | 6.1 | 0.00 | 0.00 | 0.00 | 31 | 1006.0 |
| 20260505225017 | 77 | 340 | 1.7 | 4.3 | 0.00 | 0.00 | 0.00 | 31 | 1006.0 |
| 20260505224516 | 78 | 229 | 0.9 | 7.8 | 0.00 | 0.00 | 0.00 | 31 | 1006.0 |
| 20260505224018 | 78 | 192 | 2.6 | 6.1 | 0.00 | 0.00 | 0.00 | 31 | 1006.0 |
| 20260505223517 | 78 | 291 | 3.5 | 5.2 | 0.00 | 0.00 | 0.00 | 30 | 1006.0 |
| 20260505223016 | 78 | 115 | 2.6 | 7.8 | 0.00 | 0.00 | 0.00 | 31 | 1006.0 |
| 20260505222516 | 78 | 191 | 3.5 | 6.1 | 0.00 | 0.00 | 0.00 | 30 | 1006.0 |
| 20260505222017 | 78 | 251 | 2.6 | 4.3 | 0.00 | 0.00 | 0.00 | 29 | 1006.0 |
| 20260505221516 | 78 | 258 | 2.6 | 6.1 | 0.00 | 0.00 | 0.00 | 29 | 1006.0 |
| 20260505221023 | 79 | 189 | 0.0 | 2.6 | 0.00 | 0.00 | 0.00 | 28 | 1006.0 |
| 20260505220517 | 79 | 353 | 1.7 | 4.3 | 0.00 | 0.00 | 0.00 | 28 | 1006.0 |
| 20260505220016 | 79 | 200 | 3.5 | 4.3 | 0.00 | 0.00 | 0.00 | 28 | 1006.0 |
| 20260505215518 | 80 | 265 | 0.9 | 4.3 | 0.00 | 0.00 | 0.00 | 27 | 1006.0 |
| 20260505215018 | 80 | 257 | 3.5 | 6.1 | 0.00 | 0.00 | 0.00 | 27 | 1005.0 |
| 20260505214517 | 80 | 257 | 1.7 | 5.2 | 0.00 | 0.00 | 0.00 | 28 | 1006.0 |
| 20260505214026 | 80 | 303 | 6.1 | 7.8 | 0.00 | 0.00 | 0.00 | 27 | 1006.0 |
| 20260505213517 | 80 | 253 | 3.5 | 5.2 | 0.00 | 0.00 | 0.00 | 28 | 1006.0 |
| 20260505213016 | 80 | 220 | 1.7 | 5.2 | 0.00 | 0.00 | 0.00 | 29 | 1005.0 |
| 20260505212516 | 80 | 170 | 5.2 | 5.2 | 0.00 | 0.00 | 0.00 | 29 | 1005.0 |
| 20260505212016 | 80 | 218 | 4.3 | 7.8 | 0.00 | 0.00 | 0.00 | 28 | 1005.0 |
| 20260505211517 | 82 | 196 | 2.6 | 5.2 | 0.00 | 0.00 | 0.00 | 28 | 1005.0 |
| 20260505211016 | 83 | 303 | 3.5 | 5.2 | 0.00 | 0.00 | 0.00 | 28 | 1005.0 |
| 20260505210518 | 83 | 202 | 0.9 | 4.3 | 0.00 | 0.00 | 0.00 | 27 | 1005.0 |
| 20260505210016 | 82 | 231 | 3.5 | 5.2 | 0.00 | 0.00 | 0.00 | 27 | 1005.0 |
| 20260505205517 | 82 | 206 | 3.5 | 5.2 | 0.00 | 0.00 | 0.00 | 28 | 1005.0 |
| 20260505205016 | 83 | 186 | 3.5 | 4.3 | 0.00 | 0.00 | 0.00 | 27 | 1005.0 |
| 20260505204516 | 82 | 219 | 5.2 | 5.2 | 0.00 | 0.00 | 0.00 | 28 | 1005.0 |
| 20260505204020 | 82 | 320 | 2.6 | 6.1 | 0.00 | 0.00 | 0.00 | 28 | 1005.0 |
| 20260505203516 | 83 | 197 | 1.7 | 13.0 | 0.00 | 0.00 | 0.00 | 26 | 1005.0 |
| 20260505203016 | 84 | 273 | 4.3 | 7.8 | 0.00 | 0.00 | 0.00 | 26 | 1005.0 |
| 20260505202517 | 84 | 276 | 2.6 | 6.1 | 0.00 | 0.00 | 0.00 | 27 | 1005.0 |
| 20260505202017 | 84 | 296 | 1.7 | 4.3 | 0.00 | 0.00 | 0.00 | 28 | 1005.0 |
| 20260505201516 | 84 | 266 | 2.6 | 5.2 | 0.00 | 0.00 | 0.00 | 29 | 1005.0 |
| 20260505201017 | 83 | 111 | 1.7 | 6.1 | 0.00 | 0.00 | 0.00 | 28 | 1005.0 |
| 20260505200517 | 84 | 289 | 8.7 | 8.7 | 0.00 | 0.00 | 0.00 | 29 | 1005.0 |
| 20260505200017 | 83 | 215 | 4.3 | 6.1 | 0.00 | 0.00 | 0.00 | 29 | 1005.0 |
| 20260505195519 | 83 | 1 | 2.6 | 5.2 | 0.00 | 0.00 | 0.00 | 29 | 1005.0 |
| 20260505195016 | 83 | 224 | 0.9 | 6.1 | 0.00 | 0.00 | 0.00 | 29 | 1005.0 |
| 20260505194517 | 84 | 206 | 2.6 | 5.2 | 0.00 | 0.00 | 0.00 | 29 | 1005.0 |
| 20260505194016 | 84 | 265 | 2.6 | 4.3 | 0.00 | 0.00 | 0.00 | 29 | 1006.0 |
| 20260505193517 | 85 | 166 | 0.0 | 6.1 | 0.00 | 0.00 | 0.00 | 28 | 1005.0 |
| 20260505193017 | 84 | 98 | 2.6 | 4.3 | 0.00 | 0.00 | 0.00 | 28 | 1005.0 |
| 20260505192518 | 84 | 271 | 1.7 | 4.3 | 0.00 | 0.00 | 0.00 | 28 | 1005.0 |
| 20260505192017 | 85 | 198 | 1.7 | 4.3 | 0.00 | 0.00 | 0.00 | 28 | 1006.0 |
| 20260505191516 | 84 | 204 | 4.3 | 7.8 | 0.00 | 0.00 | 0.00 | 28 | 1006.0 |
| 20260505191016 | 84 | 146 | 3.5 | 4.3 | 0.00 | 0.00 | 0.00 | 27 | 1006.0 |
| 20260505190516 | 85 | 280 | 1.7 | 7.0 | 0.00 | 0.00 | 0.00 | 28 | 1006.0 |
| 20260505190016 | 84 | 318 | 0.0 | 4.3 | 0.00 | 0.00 | 0.00 | 30 | 1006.0 |
| 20260505185516 | 84 | 168 | 2.6 | 4.3 | 0.00 | 0.00 | 0.00 | 29 | 1006.0 |
| 20260505185017 | 84 | 314 | 2.6 | 4.3 | 0.00 | 0.00 | 0.00 | 29 | 1006.0 |
| 20260505184517 | 83 | 194 | 1.7 | 9.6 | 0.00 | 0.00 | 0.00 | 29 | 1006.0 |
| 20260505184017 | 84 | 221 | 3.5 | 7.0 | 0.00 | 0.00 | 0.00 | 29 | 1006.0 |
| 20260505183517 | 85 | 194 | 1.7 | 4.3 | 0.00 | 0.00 | 0.00 | 29 | 1006.0 |
| 20260505183017 | 85 | 208 | 1.7 | 8.7 | 0.00 | 0.00 | 0.00 | 29 | 1006.0 |
| 20260505182516 | 84 | 146 | 2.6 | 2.6 | 0.00 | 0.00 | 0.00 | 31 | 1006.0 |
| 20260505182019 | 84 | 266 | 0.9 | 5.2 | 0.00 | 0.00 | 0.00 | 30 | 1006.0 |
| 20260505181518 | 85 | 194 | 4.3 | 4.3 | 0.00 | 0.00 | 0.00 | 31 | 1006.0 |
| 20260505181017 | 85 | 22 | 1.7 | 3.5 | 0.00 | 0.00 | 0.00 | 32 | 1006.0 |
| 20260505180518 | 85 | 161 | 1.7 | 3.5 | 0.00 | 0.00 | 0.00 | 30 | 1006.0 |
| 20260505180016 | 85 | 199 | 1.7 | 3.5 | 0.00 | 0.00 | 0.00 | 31 | 1006.0 |
| 20260505175516 | 85 | 195 | 1.7 | 4.3 | 0.00 | 0.00 | 0.00 | 31 | 1006.0 |
| 20260505175016 | 84 | 162 | 3.5 | 5.2 | 0.00 | 0.00 | 0.00 | 32 | 1006.0 |
| 20260505174516 | 84 | 41 | 5.2 | 8.7 | 0.00 | 0.00 | 0.00 | 33 | 1006.0 |
| 20260505174017 | 84 | 273 | 4.3 | 4.3 | 0.00 | 0.00 | 0.00 | 33 | 1006.0 |
| 20260505173517 | 85 | 225 | 5.2 | 7.8 | 0.00 | 0.00 | 0.00 | 31 | 1006.0 |
| 20260505173017 | 85 | 241 | 2.6 | 4.3 | 0.00 | 0.00 | 0.00 | 32 | 1007.0 |
| 20260505172516 | 84 | 145 | 1.7 | 2.6 | 0.00 | 0.00 | 0.00 | 34 | 1007.0 |
| 20260505172017 | 83 | 294 | 1.7 | 5.2 | 0.00 | 0.00 | 0.00 | 34 | 1007.0 |
| 20260505171516 | 83 | 295 | 2.6 | 4.3 | 0.00 | 0.00 | 0.00 | 35 | 1007.0 |
| 20260505171017 | 83 | 175 | 0.0 | 6.1 | 0.00 | 0.00 | 0.00 | 34 | 1007.0 |
| 20260505170517 | 83 | 251 | 5.2 | 7.0 | 0.00 | 0.00 | 0.00 | 34 | 1007.0 |
| 20260505170016 | 82 | 12 | 0.0 | 1.7 | 0.00 | 0.00 | 0.00 | 37 | 1007.0 |
| 20260505165517 | 81 | 341 | 2.6 | 4.3 | 0.00 | 0.00 | 0.00 | 36 | 1007.0 |
| 20260505165018 | 81 | 320 | 1.7 | 3.5 | 0.00 | 0.00 | 0.00 | 37 | 1007.0 |
| 20260505164516 | 82 | 187 | 2.6 | 4.3 | 0.00 | 0.00 | 0.00 | 36 | 1007.0 |
| 20260505164016 | 81 | 174 | 0.9 | 2.6 | 0.00 | 0.00 | 0.00 | 38 | 1007.0 |
| 20260505163516 | 80 | 144 | 1.7 | 2.6 | 0.00 | 0.00 | 0.00 | 39 | 1007.0 |
| 20260505163017 | 80 | 269 | 1.7 | 2.6 | 0.00 | 0.00 | 0.00 | 39 | 1007.0 |